STARLINK-1601, 46120

Orbit data source: Space-Track

STARLINK-1601, 46120 is a payload satellite owned by SpaceX/Seattle (US) in LEO that was launched on Tue, 18 Aug 2020 UTC via an FALCON 9 launch vehicle from the Air Force Eastern Test Range (AFETR). Payload-class satellites include a variety of spacecraft equipped with specific instruments for various scientific and technological missions. These include communications satellites like Starlink; space stations such as the ISS; scientific satellites like the Hubble; Earth observation satellites from companies like Planet Labs, Umbra, and HawkEye 360; GPS; miniature CubeSats for education and research; and military/defense satellites.

Loading next visibility...
Identifier
46120, 2020-057D
Orbit
LEO
Country
Flag of USUS
Related business
Manufacturer
SpaceX/Seattle
Mission
Operational Commercial Communications
Bus & Motor
STARLINK, Unknown motor
Mass
260 kg wet, ~248 kg dry
Launch date (UTC)
2020-08-18 (5 years ago)
Launch vehicle
FALCON 9
Launch site
Air Force Eastern Test Range (AFETR)
Object type
Payload
Rocket body
Debris
Shape & HBR
Box + 1 Pan, 10.1 m
Radar Cross Section
13.562 m², Large (>1 m²)

Expand to show TLE details & history
Last TLE update: 4 hours ago

TLE from 4 hours ago
0 STARLINK-1601
1 46120U 20057D   25289.25002315  .01096722  00000-0  49898-1 0  9997
2 46120  53.0540 244.7937 0001386  84.0211 148.7917 15.17524028  5593
Epoch: 2025-10-16T06:00Z
TLE epoch observation values (Epoch: 2025-10-16T06:00:02.000Z)
Latitude
-39.75393°
Longitude
-11.75397°
Altitude
527.203 km
Speed
7.599 km/s
True Right ascension
06h 53m 04s
True Declination
-39° 34' 45"
Sunlit
Object was in daylight at epoch
Visualization orbit readout
Latitude
Unknown
Longitude
Unknown
Altitude
Unknown
Speed
Unknown
Apparent Right ascension
Unknown
Apparent Declination
Unknown
Sunlit
N/A
Visualization observer readout
Local Sidereal Time
04:23:02
Azimuth
Unknown
Elevation
Unknown
Doppler factor
Unknown
Orbital elements
Apogee altitude
514.554 km
Perigee altitude
512.643 km
Semi-major axis
6,891.736 km
Eccentricity
0.00014
Inclination
53.054°
RAAN
244.7937°
Arg. of periapsis
84.0211°
True anomaly
148.79993°
Mean anomaly
148.7917°
Eccentric anomaly
148.79581°
Mean motion
3.79359 °/min
Orbital period
94.9 mins
BSTAR
0.049898
Loading maneuver chart data...
Computing Atmospheric mass density...

Documentation

Showing up to 5 results
|